User: anonymous   Login
Location: NJAA Observatory
(40.6819°N, 74.8979°W)
Time: 21:27:25
(UTC-05:00)
Language:

ATLAS CENTAUR R/B - Orbit

View from above orbital plane
View from above orbital plane
View from above satellite
View from above satellite

Ground track
Ground track

The orbit data is extracted from the following two-line orbital elements,

1 28385U 04034B   18052.79394273 0.00031500  00000-0  36508-3 0    04
2 28385  57.3301 291.6902 3419569 279.9553  80.0447  8.66922770    03
Epoch (UTC): 21 February 2018 19:03:16
Eccentricity: 0.3419569
inclination: 57.3301°
perigee height: 208 km
apogee height: 7054 km
right ascension of ascending node: 291.6902°
argument of perigee: 279.9553°
revolutions per day: 8.66922770
mean anomaly at epoch: 80.0447°
orbit number at epoch: 0

The dashed part of the orbit path shows where the satellite is in the earth's shadow,  

DLR